sat.trackr.live / text

‹ back to catalog

ONEWEB-0421

NORAD 50496 · 2021-132AD

PAYLOAD ACTIVE UNKNOWN

§ Identity

Operator
Country
UK
Launch date
2021-12-27
Launch site
TYMSC
Launch vehicle
Mass (kg)
RCS (m²)

Purposes: comms

External: N2YO · Heavens-Above · Gunter

§ Orbital elements

Epoch: 2026-09-20T02:05:23.267040Z

Period
109.20 min
Inclination
87.9166°
Eccentricity
0.0002315
Mean motion
13.18687941 rev/d
Perigee alt
1,188.0 km
Apogee alt
1,191.5 km
Semi-major
7,567.9 km
B*
1.7790e-4
RAAN
316.5995°
Arg perigee
95.6924°
Mean anomaly
264.4472°
Rev number
23,412

§ Raw data

ONEWEB-04211 50496U 21132AD  26263.08707485  .00000083  00000+0  17790-3 0  99982 50496  87.9166 316.5995 0002315  95.6924 264.4472 13.18687941234126

JSON: /api/v1/satellites/50496 · /tle

For live sub-satellite position, see the globe view (requires WebGL).

§ Visibility from observer

Set your observer location to see the next 7 days of passes ≥ 10°. The values pass through the URL so the page stays shareable.

No JS? Fill the form by hand. The geolocation button needs JavaScript.